Regional Weather Roundup
Issued by NWS Little Rock, AR

Home | Current Version | Previous Version | Text Only | Print | Product List | Glossary On
Versions: 1 2 3 4 5 6 7 8 9 10 11 12 13 14 15 16 17 18 19 20 21 22 23 24 25 26 27
000
ASUS44 KLZK 250405
RWRLZK

WEATHER ROUNDUP FOR ARKANSAS
NATIONAL WEATHER SERVICE LITTLE ROCK AR
1100 PM CDT SUN JUL 24 2016

NOTE: "FAIR" INDICATES FEW OR NO CLOUDS BELOW 12,000 FEET WITH NO
SIGNIFICANT WEATHER AND/OR OBSTRUCTIONS TO VISIBILITY.

ARZ001-003-010-029-250500-
NORTHWEST ARKANSAS

CITY           SKY/WX    TMP DP  RH WIND       PRES   REMARKS
FAYETTEVILLE   CLEAR     79  70  74 SE3       30.01R
FORT SMITH     CLEAR     80  71  74 E7        29.95S
HARRISON       CLEAR     77  71  82 SE3       30.01S
BENTONVILLE    CLEAR     84  73  70 CALM      30.01R HX  91
ROGERS         CLEAR     83  75  77 S5        30.01S HX  90
SILOAM SPGS    CLEAR     81  66  61 SW3       30.02R
HIGHFILL       CLEAR     83  75  77 S5        30.00R HX  90
$$

ARZ004-005-016-250500-
NORTH CENTRAL ARKANSAS

CITY           SKY/WX    TMP DP  RH WIND       PRES   REMARKS
BATESVILLE     MOCLDY    79  75  89 E3        29.97S
FLIPPIN        CLEAR     81  72  74 CALM      29.95F
MTN HOME       CLEAR     77  76  96 CALM      29.98F
$$

ARZ040-041-250500-
WEST CENTRAL ARKANSAS

CITY           SKY/WX    TMP DP  RH WIND       PRES   REMARKS
MENA           CLOUDY    79  75  89 CALM      30.02F
MOUNT IDA      PTCLDY    74  73  97 VRB3      29.97F
$$

ARZ009-017-025-026-028-250500-
NORTHEAST ARKANSAS

CITY           SKY/WX    TMP DP  RH WIND       PRES   REMARKS
CORNING          N/A     82  81  94 SE5       29.96S HX  95
JONESBORO      CLEAR     76  74  93 CALM      29.97S
NEWPORT        PTCLDY    79  77  94 SE7       29.97F
WALNUT RIDGE   PTCLDY    81  75  83 SE8       29.96S HX  86
BLYTHEVILLE    CLEAR     82  78  88 CALM      29.97S HX  91
$$

ARZ022-023-033-042-044-250500-
CENTRAL ARKANSAS

CITY           SKY/WX    TMP DP  RH WIND       PRES   REMARKS
LITTLE ROCK    CLOUDY    80  70  71 SW5       29.96F
N LITTLE ROCK    N/A     76  70  81 CALM      29.94S
JACKSONVILLE   CLOUDY    78  73  84 W5        29.96F
SEARCY         PTCLDY    79  71  76 CALM      29.98R
HOT SPRINGS    PTCLDY    73  72  96 VRB3      29.98F
RUSSELLVILLE   PTCLDY    74  70  87 SE5       29.96F
$$

ARZ036-250500-
EAST ARKANSAS

CITY           SKY/WX    TMP DP  RH WIND       PRES   REMARKS
WEST MEMPHIS   PTCLDY    78  75  90 CALM      29.96S
$$

ARZ050-053-066-070-073-250500-
SOUTHWEST ARKANSAS

CITY           SKY/WX    TMP DP  RH WIND       PRES   REMARKS
CAMDEN         PTCLDY    77  70  78 W3        29.95F
TEXARKANA      PTCLDY    77  73  87 SE6       29.98F
EL DORADO      PTCLDY    76  72  87 CALM      29.97F
DE QUEEN       CLOUDY    78  77  96 E5        29.97F FOG
$$

ARZ056-057-069-250500-
SOUTHEAST ARKANSAS

CITY           SKY/WX    TMP DP  RH WIND       PRES   REMARKS
PINE BLUFF     CLOUDY    78  75  90 CALM      29.96F
STUTTGART      CLOUDY    82  73  74 SW6       29.96F HX  88
MONTICELLO     MOCLDY    77  73  87 W3        29.96F

$$






USA.gov is the U.S. government's official web portal to all federal, state and local government web resources and services.